Location: Newark
(9.1700°S, 36.6800°W)
Time: 12:00:04
(UTC+00:00)

Envisat - Visible Passes

Search period start: 22 October 2019 00:00
Search period end: 01 November 2019 00:00
Orbit: 764 x 766 km, 98.1° (Epoch: 22 October)

Date Brightness Start Highest point End Pass type
(mag) Time Alt. Az. Time Alt. Az. Time Alt. Az.
22 Oct 3.0 21:02:06 10° SSE 21:07:13 85° ENE 21:12:17 10° N visible
23 Oct 5.9 22:06:03 10° SW 22:09:12 17° WSW 22:12:23 10° WNW visible
24 Oct 4.1 21:27:46 10° S 21:32:38 46° WSW 21:37:28 10° NNW visible
25 Oct 3.0 20:50:56 10° SSE 20:55:59 62° ENE 21:00:59 10° N visible
26 Oct 5.4 21:54:06 10° SSW 21:58:01 23° WSW 22:01:54 10° NW visible
27 Oct 3.5 21:16:22 10° S 21:21:25 63° WSW 21:26:25 10° NNW visible
28 Oct 3.3 20:39:52 10° SSE 20:44:44 45° E 20:49:33 10° N visible
28 Oct 6.3 22:22:21 10° WSW 22:23:20 11° WSW 22:24:19 10° W visible
29 Oct 5.0 21:42:23 10° SSW 21:46:48 30° WSW 21:51:12 10° NW visible
30 Oct 3.0 21:05:04 10° S 21:10:11 86° W 21:15:15 10° NNW visible
31 Oct 6.0 22:09:22 10° SW 22:12:09 15° WSW 22:14:56 10° WNW visible
